Aérodrome :
LOGIN :

S'inscrire | Disclaimer

   EN    FR    IT 

 










Légende :    VFR   VFR Marginal   IFR   IFR Intensif   IFR Très Intensif
Visi : 
Plafond : 
>= 8 km
>= 3000ft
5 à 8 km
1000 à 3000 ft
1500m à 5 km
500 à 1000 ft
800 à 1500m
200 à 500 ft
< 800m
< 200 ft
Symboles :   Orages  Brouillard  Fortes neiges  Fortes précipitations  Vent > 20 kt
SIGMETs :   Divers  Orages  Givrage  Turbulence  Onde Orograph.  Cendres Volcan.







- Altitude de l'aérodrome : 1306 ft
- Code IATA : ACH


LSZR - Alten Rhein

DERNIER METAR :
  • 202020Z AUTO VRB03KT CAVOK 16/06 Q1021

METARs EXPIRÉS :
  • 201950Z AUTO 17003KT CAVOK 18/06 Q1022
  • 201920Z AUTO 14005KT 100V190 CAVOK 20/05 Q1022
  • 201850Z AUTO 13004KT 090V200 CAVOK 15/09 Q1021
  • 201820Z VRB02KT CAVOK 16/12 Q1021 NOSIG RMK O
  • 201750Z 25002KT CAVOK 23/10 Q1021 NOSIG RMK N

TAF TAF LSZR
Valide du 20 à 15h jusqu'au 21 à 00h UTC


201425Z 2015/2024 VRB03KT CAVOK
ATIS : +41 71 858 51 66
Pas de NOTAMs connus pour ce terrain.



MET'MAP, la Météo Aéronautique d'un coup d'oeil ! - Copyright ORBIFLY Décembre 2007 - Disclaimer

ORBIFLY MET'MAP TEAM :

Programmation & Développement : Alexandra Zaïnal
Conception & Développement : Baudouin d'Aumeries
Co-Programmation & Développement : Marc-Olivier Méhu
Soutien technique & logistique : Manuel Goepfert

Contact : metmap@orbifly.com




SOURCES & CREDITS :

   NOAA